This demonstration page uses our WeatherBlox Daily Observations layout. Learn more.

40.92945, -100.16068

Hourly Observations for February 4, 2019

Temp ( °F °C ) Dew Point ( °F °C ) Humidity (%) Winds ( mph kmh ) Pressure ( in mb ) Visibility ( mi km ) Precip ( " mm )
12:15 am 00:15 Cloudy with Mist and Fog 25 -3.7 23 -5 91 91 N 23 37 29.83 1010 5 8.0467 0 0
12:35 am 00:35 Cloudy with Mist and Fog 24 -4.7 22 -5.8 92 92 N 18 30 29.86 1011 4 6.43736 0 0
12:50 am 00:50 Cloudy with Mist and Fog 22 -5.3 20 -6.4 92 92 N 23 37 29.88 1012 4 6.43736 0 0
1:15 am 01:15 Cloudy with Mist and Fog 21 -6.2 18 -7.6 90 90 N 24 39 29.91 1013 5 8.0467 0 0
1:30 am 01:30 Cloudy 20 -6.5 17 -8.2 88 88 N 18 30 29.93 1014 7 11.26538 0 0
1:55 am 01:55 Cloudy 19 -7 16 -9 86 86 N 16 26 29.96 1014 7 11.26538 0 0
2:15 am 02:15 Cloudy 19 -7.2 14 -9.8 82 82 N 15 24 29.96 1015 10 16.0934 0 0
2:30 am 02:30 Cloudy 19 -7.5 14 -10 83 83 N 15 24 29.98 1015 10 16.0934 0 0
2:55 am 02:55 Cloudy 18 -7.8 13 -10.3 82 82 N 17 28 30 1016 10 16.0934 0 0
3:15 am 03:15 Cloudy 17 -8.1 12 -11 80 80 N 16 26 30.02 1017 10 16.0934 N/A
3:35 am 03:35 Cloudy with Light Snow 17 -8.4 12 -11.1 81 81 N 15 24 30.02 1017 7 11.26538 N/A
3:55 am 03:55 Cloudy with Light Snow 17 -8.5 11 -11.5 79 79 N 18 30 30.03 1017 7 11.26538 0 0
4:15 am 04:15 Cloudy with Light Snow 17 -8.5 11 -11.4 80 80 N 16 26 30.04 1017 7 11.26538 N/A
4:35 am 04:35 Cloudy 16 -8.8 10 -12.1 77 77 N 18 30 30.06 1018 10 16.0934 N/A
4:55 am 04:55 Cloudy with Light Snow 15 -9.2 9 -12.7 76 76 NNW 18 30 30.07 1018 10 16.0934 N/A
5:15 am 05:15 Partly Cloudy 15 -9.5 8 -13.1 75 75 N 20 31 30.08 1019 10 16.0934 N/A
5:35 am 05:35 Clear 14 -10 8 -13.5 76 76 N 17 28 30.1 1019 10 16.0934 N/A
5:55 am 05:55 Clear 14 -10.1 6 -14.3 72 72 N 18 30 30.1 1019 10 16.0934 N/A
6:15 am 06:15 Clear 13 -10.5 6 -14.6 72 72 N 18 30 30.12 1020 10 16.0934 0 0
6:35 am 06:35 Clear 13 -10.5 6 -14.5 73 73 N 15 24 30.13 1020 10 16.0934 N/A
6:50 am 06:50 Clear 13 -10.7 5 -14.9 72 72 N 15 24 30.13 1020 10 16.0934 N/A
7:15 am 07:15 Clear 12 -11 5 -15.1 72 72 N 14 22 30.15 1021 10 16.0934 N/A
7:35 am 07:35 Clear 12 -11.1 4 -15.4 71 71 N 17 28 30.16 1021 10 16.0934 N/A
7:55 am 07:55 Sunny 12 -11.3 4 -15.6 71 71 N 17 28 30.18 1022 10 16.0934 N/A
8:15 am 08:15 Sunny 11 -11.5 4 -15.8 71 71 N 15 24 30.2 1023 10 16.0934 N/A
8:35 am 08:35 Sunny 11 -11.5 3 -16.2 68 68 N 16 26 30.22 1023 10 16.0934 N/A
8:55 am 08:55 Sunny 12 -11.1 2 -16.7 64 64 N 18 30 30.22 1023 10 16.0934 N/A
9:15 am 09:15 Sunny 12 -11.2 1 -17.3 61 61 N 21 33 30.23 1024 10 16.0934 N/A
9:35 am 09:35 Sunny 13 -10.7 2 -16.6 62 62 N 15 24 30.23 1024 10 16.0934 N/A
9:55 am 09:55 Sunny 13 -10.5 3 -16.2 63 63 N 17 28 30.24 1024 10 16.0934 N/A
10:15 am 10:15 Sunny 14 -10.1 4 -15.7 64 64 N 13 20 30.23 1024 10 16.0934 N/A
10:35 am 10:35 Sunny 15 -9.5 5 -15.1 64 64 N 14 22 30.23 1024 10 16.0934 N/A
10:55 am 10:55 Sunny 16 -9 5 -15.1 62 62 N 9 15 30.22 1023 10 16.0934 N/A
11:15 am 11:15 Sunny 17 -8.4 6 -14.6 61 61 NNW 14 22 30.21 1023 10 16.0934 N/A
11:35 am 11:35 Sunny 19 -7.4 7 -14.1 59 59 N 15 24 30.2 1023 10 16.0934 N/A
11:55 am 11:55 Sunny 19 -7.2 6 -14.3 57 57 N 13 20 30.18 1022 10 16.0934 N/A
12:15 pm 12:15 Sunny 20 -6.7 7 -14.1 56 56 N 10 17 30.18 1022 10 16.0934 N/A
12:35 pm 12:35 Sunny 22 -5.8 8 -13.6 55 55 N 12 19 30.16 1021 10 16.0934 N/A
12:55 pm 12:55 Sunny 22 -5.6 8 -13.5 54 54 N 13 20 30.14 1021 10 16.0934 N/A
1:15 pm 13:15 Sunny 22 -5.3 8 -13.3 54 54 N 13 20 30.13 1020 10 16.0934 N/A
1:35 pm 13:35 Sunny 23 -5 8 -13.3 53 53 NNE 9 15 30.13 1020 10 16.0934 N/A
1:55 pm 13:55 Sunny 23 -4.9 8 -13.3 52 52 NNE 8 13 30.13 1020 10 16.0934 N/A
2:15 pm 14:15 Sunny 24 -4.7 8 -13.2 52 52 NNE 9 15 30.11 1020 10 16.0934 N/A
2:35 pm 14:35 Sunny 24 -4.4 8 -13.2 51 51 NNE 6 9 30.12 1020 10 16.0934 N/A
2:55 pm 14:55 Sunny 25 -4 8 -13.1 50 50 N 8 13 30.11 1020 10 16.0934 N/A
3:15 pm 15:15 Sunny 25 -3.9 8 -13.1 49 49 NNE 10 17 30.1 1019 10 16.0934 N/A
3:35 pm 15:35 Sunny 25 -3.8 8 -13.2 48 48 NE 8 13 30.11 1019 10 16.0934 N/A
3:55 pm 15:55 Sunny 25 -3.8 9 -12.8 50 50 NE 10 17 30.1 1019 10 16.0934 N/A
4:15 pm 16:15 Sunny 25 -4 9 -13 50 50 NE 9 15 30.1 1019 10 16.0934 N/A
4:35 pm 16:35 Sunny 24 -4.4 8 -13.1 51 51 NE 9 15 30.11 1020 10 16.0934 N/A
4:55 pm 16:55 Sunny 24 -4.6 7 -13.7 49 49 NNE 10 17 30.11 1020 10 16.0934 N/A
5:15 pm 17:15 Sunny 24 -4.7 8 -13.2 52 52 NE 9 15 30.1 1019 10 16.0934 N/A
5:35 pm 17:35 Sunny 23 -5 8 -13.3 53 53 ENE 13 20 30.12 1020 10 16.0934 N/A
6:15 pm 18:15 Clear 21 -6.1 7 -13.8 55 55 ENE 13 20 30.13 1020 10 16.0934 N/A
6:35 pm 18:35 Clear 21 -6.3 7 -13.7 56 56 ENE 14 22 30.13 1020 10 16.0934 N/A
6:55 pm 18:55 Clear 20 -6.6 7 -14 56 56 ENE 10 17 30.14 1021 10 16.0934 0 0
7:15 pm 19:15 Clear 20 -6.8 7 -13.9 57 57 ENE 14 22 30.16 1021 10 16.0934 N/A
7:35 pm 19:35 Clear 19 -7.2 7 -14.1 58 58 ENE 12 19 30.16 1021 10 16.0934 N/A
7:55 pm 19:55 Clear 19 -7.5 6 -14.2 59 59 ENE 13 20 30.16 1021 10 16.0934 N/A
8:15 pm 20:15 Clear 18 -7.6 6 -14.2 60 60 E 13 20 30.16 1021 10 16.0934 N/A
8:35 pm 20:35 Clear 18 -8 6 -14.3 61 61 E 12 19 30.17 1022 10 16.0934 N/A
8:55 pm 20:55 Clear 17 -8.3 6 -14.6 61 61 E 14 22 30.17 1022 10 16.0934 N/A
9:15 pm 21:15 Clear 16 -8.7 5 -14.8 62 62 ENE 14 22 30.18 1022 10 16.0934 N/A
9:35 pm 21:35 Clear 16 -8.9 6 -14.6 64 64 E 12 19 30.18 1022 10 16.0934 N/A
9:55 pm 21:55 Clear 16 -9.1 5 -14.9 63 63 ENE 14 22 30.17 1022 10 16.0934 N/A
10:10 pm 22:10 Clear 15 -9.2 6 -14.7 65 65 ENE 14 22 30.17 1022 10 16.0934 N/A
10:35 pm 22:35 Clear 15 -9.5 4 -15.3 63 63 ENE 14 22 30.18 1022 10 16.0934 N/A
10:55 pm 22:55 Clear 14 -9.8 4 -15.3 65 65 E 12 19 30.18 1022 10 16.0934 N/A
11:15 pm 23:15 Clear 14 -10 5 -15.2 66 66 ENE 13 20 30.19 1022 10 16.0934 N/A
11:35 pm 23:35 Clear 13 -10.4 4 -15.7 65 65 ENE 12 19 30.19 1023 10 16.0934 N/A
11:55 pm 23:55 Clear 13 -10.5 4 -15.6 66 66 ENE 9 15 30.23 1024 10 16.0934 N/A

Powered by AerisWeather